Location: Gälforsberget
(66.6500°N, 22.4167°E)
Time: 08:05:03
(UTC+00:00)

SL-16 R/B - Pass Details

Date: 11 April 2026
Orbit: 841 x 845 km, 71.0° (Epoch: 9 May)

Event Time Altitude Azimuth Distance (km) Brightness Sun altitude
Rises 18:57:24 0° 223° (SW) 3,400 5.4 -5.6°
Reaches altitude 10° 18:59:50 10° 222° (SW) 2,468 4.7 -5.8°
Maximum altitude 19:05:29 77° 138° (SE) 876 2.2 -6.2°
Drops below altitude 10° 19:11:11 10° 54° (NE) 2,479 4.5 -6.6°
Sets 19:13:38 0° 53° (NE) 3,417 5.2 -6.8°
